Wind_Speed
31 30 28 28 32 34 35 38 41 44 46 48 49 48 49 50 51 52 53 54 52 51 51 54 57 59 59 58 58 60 61 61 59 53 56 53 54 56 50 44 46 59 55
35 34 34 35 37 39 41 43 45 46 49 50 50 51 50 50 50 50 50 48 49 50 53 56 58 58 57 57 54 51 54 56 57 56 56 55 54 57 65 66 58 58 56
37 37 39 40 42 44 47 48 48 48 49 50 49 48 48 48 47 47 47 50 51 54 55 57 58 59 57 55 53 53 51 52 54 56 57 54 55 59 61 51 56 58 62
41 42 43 46 47 49 50 49 49 49 49 48 48 48 47 46 47 48 50 52 55 56 56 54 50 52 50 49 50 51 52 52 54 55 58 56 55 58 58 58 58 59 59
44 46 48 50 51 52 51 51 50 49 48 48 46 44 44 46 48 50 52 54 53 49 47 49 50 49 48 49 50 52 51 52 52 54 56 58 58 58 56 57 60 62 65
49 51 53 54 54 54 53 54 54 49 47 46 44 44 44 48 51 53 54 53 47 43 46 44 44 44 45 45 45 46 45 46 48 50 51 52 54 53 51 53 51 48 46
54 56 56 56 55 55 54 51 49 48 46 43 42 44 48 51 54 56 54 49 46 45 42 40 38 37 37 38 41 42 44 46 47 49 50 51 53 53 56 51 56 49 48
57 56 56 56 56 53 49 47 45 41 40 40 44 47 49 53 56 54 49 47 45 44 40 37 31 31 31 31 33 34 34 35 38 40 43 44 47 48 46 46 57 56 55
55 55 53 51 48 47 45 42 40 40 42 44 46 49 52 54 56 50 48 48 45 37 32 31 31 31 31 32 30 30 32 33 34 37 41 45 48 48 47 50 52 54 56
53 52 50 49 47 44 41 41 42 43 45 46 48 50 53 55 53 49 47 48 44 38 37 36 36 35 35 35 34 35 35 35 35 36 39 41 42 45 47 51 56 56 58
50 50 48 46 45 43 42 43 44 45 47 49 52 53 53 53 52 50 51 49 48 47 48 43 42 41 40 39 39 40 41 41 40 41 42 46 49 50 53 55 56 58 59
46 47 48 47 45 44 44 44 44 46 49 51 51 52 51 50 51 55 53 52 53 53 51 50 49 46 45 46 46 48 49 52 51 51 53 54 56 58 59 61 63 64 65
50 49 49 47 46 46 45 43 45 47 49 49 50 49 49 51 54 52 50 50 50 53 52 53 53 51 51 51 50 50 51 53 55 56 58 60 61 62 64 66 68 70 71
49 50 47 47 45 44 42 43 44 46 47 47 48 49 51 54 55 52 51 55 56 54 54 54 55 54 53 54 56 57 59 60 60 62 62 62 64 65 67 69 71 73 72
49 48 46 44 43 41 42 44 46 48 49 49 49 50 51 54 55 55 54 53 57 58 58 56 57 58 59 62 62 62 65 67 66 68 68 66 65 66 66 68 69 70 72
49 47 45 44 44 43 46 49 50 52 53 55 54 55 55 56 57 57 58 58 59 60 61 61 63 63 64 66 67 70 71 73 70 70 69 67 66 67 69 70 71 73 75
49 48 47 46 47 48 51 53 54 54 56 55 57 57 56 57 59 58 59 60 61 62 64 64 67 70 73 74 73 73 73 74 73 72 71 71 70 69 70 72 74 75 77
51 50 50 51 53 54 55 56 58 58 58 59 59 63 66 65 64 64 63 64 66 66 68 70 73 76 78 77 76 75 77 75 72 70 71 73 74 74 75 76 77 78 78
53 55 55 56 57 59 60 61 61 62 62 64 64 66 69 70 70 68 67 68 69 69 72 75 78 80 79 78 77 77 76 75 75 75 76 77 78 78 81 83 83 83 82
58 58 59 60 61 63 65 66 66 67 68 69 71 71 71 72 74 75 74 74 77 77 78 79 81 81 80 81 81 79 78 78 78 79 79 79 81 85 86 86 84 83 82
61 61 63 64 65 66 67 69 69 70 71 73 74 76 76 77 79 80 82 83 82 82 84 85 84 84 83 83 85 85 84 83 84 83 83 84 86 85 83 84 85 84 85
67 66 66 66 67 70 71 72 72 73 74 77 77 78 80 81 83 86 88 87 87 86 85 85 86 87 89 89 88 86 85 84 83 84 87 87 86 85 86 86 86 86 85
71 70 69 70 71 73 74 75 76 77 79 80 80 82 85 87 89 91 90 91 91 91 91 92 93 92 91 90 89 86 85 85 85 86 86 86 86 86 86 84 85 84 81
73 74 74 74 75 76 77 78 80 82 84 85 88 89 90 92 93 94 94 95 96 97 96 94 90 88 85 83 84 86 87 87 86 89 88 86 85 83 81 78 77 75 71
77 77 78 78 79 81 83 83 84 85 87 90 91 92 93 95 96 97 98 98 97 92 89 86 86 84 84 86 88 88 86 86 87 86 83 80 78 79 78 76 72 64 56
82 83 83 84 86 88 89 90 91 93 93 94 95 95 96 97 96 93 89 88 86 83 83 83 84 86 87 88 86 84 86 86 82 80 78 78 77 76 74 68 61 53 49
Wind_Direction
238 248 259 264 269 271 270 271 268 268 272 277 282 284 287 291 294 296 297 299 303 309 307 304 304 301 301 304 305 305 307 303 305 293 311 301 299 297 306 300 293 308 312
244 251 262 266 268 267 269 271 272 275 276 280 283 287 292 294 294 295 298 304 304 300 298 297 297 299 304 306 305 306 304 301 299 303 306 305 303 303 306 307 301 307 304
254 260 264 266 266 267 269 272 276 277 279 283 285 287 287 289 294 300 299 299 296 295 296 298 302 304 304 305 304 301 300 299 297 298 301 298 297 297 303 303 300 309 305
256 261 264 265 267 269 272 276 280 280 279 280 283 286 289 297 301 300 295 294 294 296 299 302 305 306 308 312 309 305 302 300 297 294 296 301 302 304 306 306 303 306 302
258 261 264 267 269 271 274 277 281 281 281 280 283 290 298 302 298 295 293 294 297 300 305 306 307 309 311 309 310 308 304 302 302 302 302 304 305 306 303 301 301 305 297
261 263 266 269 271 274 277 279 281 278 278 281 289 299 300 298 296 295 294 294 298 300 302 303 305 306 308 309 310 310 310 307 306 305 303 302 301 303 304 304 299 302 305
261 265 268 271 275 277 279 277 274 275 279 290 296 298 301 299 296 296 297 298 297 299 297 299 303 307 312 315 313 311 310 308 309 309 309 306 307 309 306 304 294 300 309
263 267 271 274 275 274 270 270 274 281 287 290 297 300 301 300 296 298 296 294 294 293 294 298 303 304 316 321 322 321 321 324 325 324 323 320 318 313 309 302 306 300 309
264 268 268 267 266 267 269 273 278 282 288 293 298 299 298 297 297 294 292 290 288 287 288 290 288 294 306 310 313 317 315 317 318 318 319 319 318 313 311 305 305 303 300
265 264 264 263 265 268 270 275 282 284 289 291 292 294 295 294 291 286 289 288 281 275 277 280 285 288 293 299 300 304 306 305 307 307 310 311 310 308 308 306 303 301 300
256 257 257 257 261 264 270 275 278 282 286 289 291 290 288 287 286 282 288 284 283 277 280 282 283 284 286 293 296 295 297 297 299 299 299 299 298 298 299 299 297 296 297
250 250 253 255 260 264 268 273 278 283 286 288 288 287 286 285 286 285 285 283 283 281 282 281 284 289 291 293 295 298 299 300 301 301 301 299 298 298 298 297 296 296 296
248 249 250 256 260 265 271 276 280 282 284 286 286 284 281 281 285 287 288 285 284 286 287 288 289 291 294 295 296 295 296 297 298 299 300 300 299 298 298 297 297 298 299
247 249 254 259 264 268 274 278 281 282 284 284 283 282 280 281 284 285 285 283 281 284 286 287 288 290 292 296 295 295 296 295 293 293 295 296 296 296 297 297 298 297 297
249 253 258 263 266 271 275 277 279 281 282 282 282 282 282 283 282 285 285 285 283 284 285 286 288 291 293 295 294 294 293 292 293 294 295 296 296 297 298 298 298 298 299
254 258 262 264 266 271 274 277 279 282 284 284 283 283 284 284 284 284 285 286 287 287 285 286 286 288 291 292 292 292 292 292 293 294 296 297 299 300 301 301 301 301 300
259 260 263 265 267 269 272 276 278 280 282 282 281 279 278 279 280 281 282 284 284 284 285 287 290 291 292 291 291 291 293 294 296 297 298 299 301 301 301 301 301 300 300
259 261 263 265 265 268 271 273 274 275 278 279 281 282 282 281 280 282 284 285 287 288 289 290 291 292 293 292 293 294 294 295 296 298 299 301 303 303 304 304 303 303 301
261 264 265 268 270 271 271 272 274 275 274 275 276 277 278 281 283 283 283 284 286 287 288 289 290 292 293 293 294 294 294 295 297 300 302 303 304 306 307 306 304 303 301
262 264 266 268 270 271 271 272 272 274 276 277 278 278 278 280 281 284 285 286 285 286 287 289 290 292 292 294 295 296 298 299 301 302 304 305 306 307 305 304 302 300 297
261 265 267 269 270 270 270 271 273 275 276 276 277 278 280 281 283 284 285 286 288 288 289 291 292 294 295 295 296 297 299 300 302 303 306 306 306 305 302 301 300 298 296
266 267 268 269 270 271 272 273 273 274 274 275 277 279 281 283 284 285 286 287 288 290 291 292 293 294 294 296 297 298 299 303 304 306 307 305 303 302 301 299 297 296 296
270 270 270 271 272 273 274 275 276 276 277 278 280 281 282 283 285 285 286 288 289 290 290 290 291 294 296 297 297 300 302 304 305 305 304 302 301 299 298 297 297 299 299
270 271 272 273 274 274 275 276 276 276 278 279 281 282 282 283 284 285 286 286 287 287 289 291 293 294 296 299 299 303 303 303 303 301 300 299 298 298 299 299 300 299 299
269 270 271 271 271 273 275 276 276 277 278 278 279 280 280 280 280 280 282 284 287 289 291 293 294 296 298 301 302 301 300 300 300 300 298 298 300 302 302 302 302 301 297
272 273 273 273 273 274 275 276 275 275 275 275 275 276 276 278 280 282 285 286 288 289 292 294 296 298 299 299 297 297 297 298 299 299 300 302 303 303 303 302 299 298 295
Height
5797 5797 5798 5799 5800 5800 5800 5799 5798 5796 5794 5793 5790 5788 5786 5783 5779 5776 5773 5769 5765 5761 5757 5752 5748 5741 5737 5733 5728 5722 5717 5711 5705 5697 5696 5692 5688 5681 5676 5671 5664 5660 5656
5788 5790 5791 5791 5791 5791 5791 5789 5788 5786 5784 5782 5780 5778 5775 5772 5768 5765 5762 5758 5754 5750 5745 5739 5736 5730 5726 5721 5716 5712 5706 5701 5694 5690 5685 5680 5675 5670 5664 5658 5655 5652 5647
5779 5781 5782 5781 5781 5780 5779 5778 5776 5775 5773 5772 5769 5767 5764 5761 5758 5754 5751 5747 5743 5738 5734 5729 5725 5720 5716 5710 5704 5699 5694 5689 5684 5679 5675 5670 5664 5660 5655 5651 5644 5642 5637
5769 5770 5770 5770 5769 5769 5768 5767 5765 5764 5762 5760 5758 5755 5753 5750 5747 5743 5739 5735 5731 5727 5723 5719 5713 5709 5703 5698 5693 5688 5683 5678 5674 5669 5665 5659 5653 5648 5644 5640 5637 5632 5627
5758 5759 5758 5758 5758 5757 5756 5755 5753 5752 5750 5748 5746 5744 5741 5739 5735 5732 5728 5725 5720 5716 5711 5707 5702 5697 5692 5687 5681 5676 5671 5666 5663 5659 5653 5648 5643 5637 5632 5629 5625 5620 5616
5746 5745 5745 5745 5744 5744 5743 5742 5740 5739 5738 5737 5735 5733 5730 5727 5723 5719 5716 5711 5708 5703 5699 5695 5690 5686 5681 5676 5670 5665 5660 5655 5651 5646 5641 5637 5632 5626 5621 5617 5612 5608 5604
5731 5732 5732 5732 5731 5730 5730 5729 5729 5728 5727 5725 5723 5719 5717 5715 5711 5708 5705 5701 5697 5693 5690 5685 5680 5676 5672 5666 5661 5655 5650 5645 5640 5636 5631 5627 5621 5616 5611 5607 5602 5599 5594
5718 5719 5719 5719 5719 5719 5718 5718 5717 5716 5715 5712 5710 5707 5704 5702 5699 5696 5693 5690 5686 5682 5678 5675 5671 5666 5662 5657 5653 5647 5642 5637 5632 5627 5622 5617 5611 5605 5600 5597 5593 5588 5584
5705 5706 5705 5705 5705 5705 5705 5704 5704 5703 5701 5699 5697 5694 5692 5690 5687 5684 5681 5678 5675 5672 5669 5665 5662 5657 5652 5648 5642 5637 5632 5628 5622 5617 5612 5607 5602 5597 5592 5587 5581 5577 5573
5691 5692 5692 5692 5692 5692 5692 5692 5690 5689 5687 5685 5683 5680 5677 5676 5674 5672 5670 5667 5664 5660 5657 5653 5651 5647 5642 5637 5632 5628 5621 5615 5610 5604 5600 5595 5590 5585 5580 5575 5570 5566 5562
5676 5678 5678 5678 5679 5679 5679 5678 5676 5674 5673 5670 5669 5667 5665 5663 5661 5660 5659 5656 5652 5649 5646 5643 5639 5633 5629 5625 5620 5616 5610 5603 5598 5593 5587 5582 5577 5571 5567 5562 5556 5550 5545
5662 5663 5664 5664 5665 5665 5664 5663 5660 5659 5659 5658 5657 5655 5653 5651 5650 5648 5645 5642 5639 5637 5634 5630 5627 5623 5618 5614 5609 5604 5599 5594 5588 5583 5577 5571 5565 5560 5554 5548 5543 5537 5532
5647 5649 5649 5650 5650 5649 5648 5646 5646 5645 5644 5643 5642 5640 5639 5637 5635 5633 5630 5628 5626 5624 5621 5618 5613 5609 5604 5599 5595 5589 5584 5578 5573 5568 5562 5556 5551 5545 5539 5533 5529 5522 5517
5633 5634 5635 5635 5635 5634 5632 5631 5630 5630 5628 5627 5627 5627 5625 5623 5621 5618 5616 5615 5612 5609 5606 5603 5599 5594 5589 5583 5578 5573 5568 5562 5555 5551 5546 5540 5534 5529 5524 5518 5513 5506 5502
5617 5619 5619 5619 5619 5618 5616 5616 5616 5616 5615 5614 5614 5612 5610 5608 5607 5604 5602 5599 5596 5592 5589 5586 5582 5577 5573 5568 5561 5555 5551 5546 5541 5536 5530 5524 5517 5512 5506 5499 5494 5488 5485
5602 5603 5603 5603 5602 5602 5602 5602 5602 5602 5600 5600 5598 5596 5595 5593 5590 5588 5586 5583 5580 5577 5574 5570 5566 5560 5554 5549 5544 5538 5533 5529 5522 5517 5511 5506 5500 5494 5488 5482 5476 5470 5465
5587 5587 5587 5587 5586 5587 5587 5587 5587 5585 5585 5584 5583 5580 5577 5575 5573 5569 5567 5565 5562 5560 5556 5552 5549 5545 5540 5534 5528 5522 5516 5509 5503 5497 5492 5487 5481 5476 5470 5463 5456 5449 5443
5571 5571 5571 5571 5571 5572 5572 5572 5571 5570 5568 5567 5565 5565 5563 5559 5555 5553 5550 5546 5544 5540 5538 5534 5529 5525 5520 5514 5508 5502 5497 5490 5483 5477 5472 5466 5460 5454 5447 5441 5434 5427 5419
5553 5554 5555 5556 5556 5556 5556 5555 5554 5553 5551 5549 5547 5545 5544 5543 5540 5535 5530 5527 5524 5519 5515 5512 5508 5503 5497 5492 5486 5481 5476 5470 5464 5457 5451 5444 5437 5429 5422 5415 5408 5401 5393
5537 5537 5537 5537 5537 5537 5537 5536 5535 5534 5532 5531 5528 5527 5524 5522 5519 5517 5512 5507 5503 5499 5494 5490 5485 5480 5476 5472 5466 5459 5453 5446 5441 5435 5428 5421 5413 5405 5399 5391 5382 5374 5366
5519 5519 5519 5518 5518 5518 5518 5517 5516 5515 5513 5510 5507 5504 5502 5500 5497 5493 5489 5485 5480 5476 5471 5466 5462 5457 5452 5448 5443 5437 5431 5425 5419 5412 5405 5398 5390 5383 5373 5364 5357 5347 5339
5499 5499 5499 5498 5498 5498 5497 5496 5494 5492 5489 5488 5485 5483 5479 5477 5473 5469 5466 5462 5457 5452 5448 5444 5439 5434 5429 5423 5418 5413 5407 5401 5395 5388 5381 5373 5364 5356 5348 5341 5332 5324 5315
5481 5480 5479 5478 5477 5476 5476 5475 5473 5471 5468 5466 5463 5460 5457 5453 5450 5447 5442 5437 5433 5428 5425 5421 5416 5411 5406 5400 5394 5390 5385 5378 5370 5364 5357 5349 5341 5332 5323 5315 5307 5299 5291
5460 5459 5459 5458 5457 5455 5453 5451 5449 5447 5444 5442 5439 5436 5433 5430 5427 5423 5419 5414 5408 5404 5401 5397 5392 5387 5380 5375 5370 5364 5358 5352 5346 5339 5331 5324 5315 5307 5299 5291 5282 5275 5268
5437 5437 5436 5435 5432 5430 5429 5426 5424 5422 5419 5417 5414 5411 5408 5405 5401 5398 5394 5390 5386 5381 5376 5372 5368 5363 5358 5353 5347 5340 5333 5326 5320 5313 5305 5297 5289 5282 5275 5267 5260 5254 5249
5413 5413 5412 5410 5409 5407 5405 5403 5400 5397 5394 5391 5389 5386 5383 5380 5376 5372 5369 5365 5361 5356 5352 5348 5343 5339 5334 5328 5321 5314 5308 5300 5294 5287 5280 5272 5265 5259 5252 5246 5241 5237 5233